Wind_Speed
26 26 26 25 25 25 24 24 25 26 27 27 28 28 29 30 30 30 30 30 31 31 32 32 32 32 33 34 35 36 36 36 37 37 38 39 42 45 47 47 46 43 42 40 39 39 39 39 37 36 36 36 35 34 33 32 31 31 31 31 32 33 33 34 36 36 35 36 38 38 39 40 40 39 40 41 40 41 41 43 45 47 48 50 52
26 26 25 25 25 25 25 25 26 27 27 28 28 29 30 30 30 30 31 31 32 32 33 32 32 33 34 35 35 36 36 36 37 37 38 41 44 46 48 47 45 43 41 39 39 38 38 37 36 35 35 34 33 32 32 31 30 30 30 30 31 32 33 34 35 36 35 34 35 36 37 38 39 39 39 40 40 41 42 44 47 49 51 53 55
26 26 26 26 26 26 26 27 27 28 28 28 29 30 31 31 31 31 32 32 33 33 33 33 33 34 35 36 36 36 37 37 37 37 39 40 43 46 47 45 44 42 40 38 37 37 37 36 35 34 34 33 32 31 31 30 29 29 29 29 30 31 32 32 33 34 33 32 33 35 36 36 37 38 39 40 41 43 45 47 50 52 54 56 56
27 28 27 28 28 28 28 28 28 28 28 29 30 31 32 32 32 32 33 33 33 34 34 34 34 35 36 36 37 37 38 37 37 38 39 39 42 46 46 43 42 41 39 37 36 35 35 34 34 33 33 32 31 31 30 28 28 28 28 28 29 29 30 31 31 32 32 32 32 33 35 36 37 39 41 42 44 45 47 50 52 54 56 57 55
28 28 28 29 29 29 28 28 29 29 29 30 32 33 33 33 33 33 33 34 34 35 35 35 36 36 37 37 38 38 38 37 37 37 38 40 43 45 44 42 41 39 37 36 35 34 33 33 33 32 32 31 31 30 28 27 26 26 27 27 28 29 29 30 30 31 32 33 32 33 35 37 38 41 43 44 46 47 48 50 54 56 58 58 55
28 29 29 30 30 29 29 29 30 30 31 32 33 34 34 33 33 33 34 35 35 36 36 37 37 38 38 38 39 38 38 36 36 37 39 41 43 44 42 41 40 37 36 35 33 32 32 32 32 32 31 31 30 28 26 26 26 26 26 27 28 28 29 30 30 31 32 34 34 34 36 38 39 42 44 46 48 50 51 52 54 57 60 59 57
28 29 30 31 30 29 30 30 30 31 32 33 34 35 34 34 34 34 35 36 37 37 38 38 38 38 39 39 39 39 38 37 37 38 39 42 44 43 41 39 37 35 34 33 32 32 32 32 32 31 31 30 28 27 25 25 26 26 27 28 28 29 30 31 31 32 33 34 36 36 37 39 41 43 45 47 49 52 54 56 57 58 60 60 59
29 29 30 30 30 30 30 30 31 32 33 35 35 36 35 35 35 36 37 37 38 38 39 39 39 39 40 40 40 39 38 38 38 39 41 43 44 42 40 37 35 34 33 32 32 32 31 32 32 32 31 30 27 26 25 26 26 27 28 29 30 31 31 32 33 34 35 36 37 38 39 40 42 44 46 49 51 53 56 58 59 61 62 61 59
28 29 29 30 30 30 30 32 33 34 35 36 36 36 36 36 36 37 38 38 38 39 40 40 40 40 41 41 41 40 39 39 39 40 42 43 43 41 38 35 34 33 32 32 32 32 32 32 32 32 32 30 28 27 27 27 27 28 29 30 31 33 33 34 35 35 37 38 39 40 41 42 44 46 48 50 53 55 56 58 60 61 63 62 60
28 29 29 30 30 31 32 33 34 35 36 36 37 37 37 37 38 39 39 39 39 40 40 40 41 41 42 42 41 41 40 40 40 40 42 43 42 39 36 34 33 32 31 32 32 32 33 33 33 33 32 31 29 29 29 29 30 30 31 32 33 34 35 36 37 37 38 39 40 41 42 43 45 47 49 51 53 55 57 59 60 61 63 63 60
28 29 29 30 32 32 32 33 34 35 36 36 37 37 37 38 39 40 40 40 40 40 41 41 42 42 43 42 42 42 41 40 40 41 42 42 40 38 35 34 32 31 31 32 33 33 33 34 34 34 33 33 31 31 31 32 32 32 33 34 35 36 37 37 38 39 39 40 41 42 42 43 45 47 48 51 53 56 58 59 60 62 63 64 61
29 29 29 31 33 33 32 34 35 36 37 37 37 38 38 40 40 40 41 40 40 41 41 42 42 43 43 42 42 42 41 40 41 42 42 40 38 37 35 33 31 31 32 32 33 34 34 34 34 34 35 34 34 34 34 34 35 35 36 37 37 38 39 39 40 40 41 42 42 42 43 43 45 46 48 51 54 57 58 59 60 61 62 63 61
29 30 30 32 34 34 34 36 37 37 37 37 38 39 40 41 41 41 41 40 41 42 42 43 43 43 43 42 41 41 41 41 42 42 41 39 37 36 34 32 32 31 32 33 34 35 35 35 35 36 36 36 36 36 37 37 38 38 38 39 40 40 41 41 41 41 42 43 43 43 43 43 44 45 48 52 55 57 58 58 59 60 61 61 58
30 32 32 33 36 36 36 38 39 38 39 39 39 40 41 41 41 41 41 41 42 43 43 43 43 43 42 42 41 41 41 42 42 40 39 38 36 35 33 33 33 33 34 35 35 36 36 35 36 36 37 38 38 39 39 39 40 40 41 42 42 42 43 42 42 43 44 44 44 43 43 43 44 46 49 53 55 57 58 58 58 59 60 59 56
33 34 34 35 37 38 38 40 40 40 41 42 42 42 42 42 42 42 42 42 42 43 43 43 44 43 43 42 41 42 42 41 40 39 38 36 35 34 34 33 34 34 35 36 36 37 37 36 37 38 39 39 40 41 41 41 42 42 43 43 44 44 44 43 43 44 45 45 44 43 44 45 46 48 50 52 54 55 55 56 56 57 58 57 54
37 36 36 37 38 38 39 40 41 42 43 43 43 43 42 42 42 41 42 42 42 42 43 44 44 43 42 42 42 43 41 40 39 38 36 35 35 35 34 34 35 36 36 37 37 37 38 38 38 39 40 40 41 42 43 43 44 44 44 44 45 45 44 43 44 45 45 45 44 44 45 46 47 48 49 51 52 53 53 53 54 56 57 56 53
39 37 37 37 38 39 40 41 42 43 43 43 43 41 40 39 39 39 40 40 41 41 42 43 43 42 42 43 43 42 39 38 37 36 35 35 35 35 35 36 37 37 38 38 38 38 39 39 40 40 40 40 42 43 43 44 44 44 44 44 45 45 44 43 44 45 45 44 44 45 45 46 46 47 48 49 51 52 52 52 53 54 55 56 53
38 36 36 38 39 40 41 42 43 43 43 42 40 39 38 38 38 39 39 39 40 41 42 43 43 43 42 42 41 39 37 36 35 35 35 35 36 36 36 37 38 38 38 38 38 39 40 40 40 40 40 40 41 42 43 43 44 44 43 44 44 43 43 43 44 44 44 43 43 44 45 45 46 47 48 48 49 50 51 52 52 53 54 54 52
37 37 38 40 40 40 41 42 42 42 41 40 39 39 39 39 39 39 39 39 39 40 41 42 41 40 39 38 38 36 35 34 35 35 35 36 36 37 38 39 39 39 39 39 40 41 41 40 40 40 40 40 41 41 42 42 42 42 42 43 42 41 41 42 43 43 42 42 43 44 44 45 45 46 47 47 48 48 49 50 51 52 53 52 50
38 39 40 39 38 39 40 41 41 40 39 39 39 39 38 38 38 38 37 37 38 38 39 38 38 37 36 36 35 34 33 34 34 36 36 37 37 38 39 40 40 39 39 40 41 41 41 40 39 40 40 41 41 41 42 42 41 41 41 41 41 40 40 41 42 41 41 42 42 43 44 44 45 45 46 46 47 47 48 49 49 50 51 50 48
38 38 37 36 36 38 39 39 39 38 38 37 37 37 37 36 36 36 36 36 37 37 37 36 36 35 34 34 34 33 34 34 35 36 37 37 38 39 40 40 40 39 40 41 42 41 40 39 39 40 41 41 41 42 42 42 42 42 42 41 41 40 40 41 41 40 41 41 42 42 43 44 44 45 46 46 46 47 47 48 48 48 49 48 46
36 35 35 35 35 36 36 36 36 35 35 35 35 35 36 36 37 37 36 37 37 36 36 35 34 34 33 33 34 34 34 35 36 37 37 37 38 39 40 40 39 39 41 42 42 41 40 40 41 41 42 42 43 44 44 44 43 44 44 43 42 41 41 41 40 40 41 41 42 42 42 43 44 45 45 45 45 46 46 47 47 47 47 46 45
33 33 33 33 33 33 33 34 34 33 34 35 35 36 36 37 37 36 36 36 35 35 34 33 33 33 33 34 34 35 35 36 37 37 37 37 38 38 39 39 39 40 41 42 42 42 41 42 43 44 44 45 45 47 48 47 46 46 45 44 43 43 42 41 41 41 42 42 42 42 42 43 43 44 44 44 45 45 45 46 46 46 46 45 43
30 29 29 30 31 31 32 33 33 34 34 35 35 36 35 35 35 35 34 34 34 33 33 33 33 34 34 35 35 36 36 37 37 38 37 37 37 37 38 39 40 42 43 44 44 44 44 45 46 47 48 48 48 50 51 50 49 48 46 45 44 44 43 44 45 45 44 43 43 43 42 43 43 44 44 44 44 44 44 45 45 45 45 44 41
27 27 28 29 30 31 31 32 32 33 33 33 34 33 33 34 34 33 33 33 33 33 33 33 34 35 36 36 36 37 38 38 39 39 38 38 37 38 39 40 42 44 46 47 47 47 48 50 51 51 51 51 52 53 53 53 52 50 47 47 47 46 45 46 48 48 46 45 44 43 43 43 43 43 44 44 44 44 44 44 44 44 44 43 40
26 27 28 29 30 30 31 31 31 31 31 31 31 31 32 32 32 33 33 33 33 33 33 34 35 36 37 38 38 39 40 40 41 40 40 40 40 40 42 43 44 46 48 49 51 51 53 54 54 54 54 55 55 56 55 55 55 52 50 50 50 48 48 49 49 49 47 46 45 44 44 43 43 43 43 43 43 44 44 44 43 43 43 43 40
26 27 28 29 29 29 29 29 30 30 30 30 30 30 31 31 31 32 32 32 33 34 34 36 37 38 39 39 40 41 42 43 43 43 42 43 43 44 45 45 46 48 50 52 54 55 56 57 57 58 58 57 58 58 58 58 57 55 54 53 52 51 51 51 50 49 48 47 46 45 44 43 43 42 42 42 42 43 44 44 43 43 44 43 41
26 27 27 28 28 28 29 29 29 29 29 30 30 30 31 31 31 32 33 34 35 36 37 38 39 40 41 41 42 43 44 44 45 45 46 47 47 47 48 48 49 50 52 54 56 57 59 60 60 60 59 59 60 60 60 59 57 56 55 54 53 53 52 51 50 48 48 48 47 46 44 43 42 41 41 41 41 43 44 43 43 43 44 44 41
27 27 27 27 27 28 28 29 29 30 30 31 31 31 32 33 34 34 35 36 37 38 39 40 41 42 43 43 44 46 46 47 48 49 50 51 52 52 52 52 53 54 55 57 58 60 61 61 61 61 61 62 62 61 60 60 58 57 56 55 54 53 52 51 49 48 48 48 48 46 44 43 42 41 40 40 40 42 43 43 43 43 44 43 41
26 26 27 27 27 28 29 30 31 31 32 32 33 34 35 35 36 38 39 39 40 41 42 43 43 45 45 46 47 48 49 50 51 53 54 54 55 55 56 56 56 57 57 58 59 60 60 60 60 61 61 61 61 61 60 60 59 57 56 54 53 53 52 50 49 48 48 48 47 45 44 43 42 41 40 40 40 41 43 42 42 42 43 43 41
26 26 27 27 28 29 30 31 32 33 33 34 35 36 37 38 39 40 41 42 43 43 44 45 46 47 48 48 50 51 52 53 54 55 56 56 56 57 57 57 57 57 57 58 58 58 59 59 59 59 59 58 59 59 59 59 58 57 55 54 53 52 51 50 48 47 48 48 47 45 43 42 42 41 40 40 40 40 42 42 41 41 42 41 40
27 27 27 28 30 31 31 33 34 35 36 37 37 38 40 40 41 42 42 43 44 45 46 47 48 49 50 51 52 53 53 54 54 55 55 56 56 56 56 56 56 56 57 57 58 58 58 59 58 57 56 55 55 56 57 57 57 55 53 52 52 51 50 49 48 48 48 47 46 45 43 42 41 41 40 40 40 40 41 41 40 40 40 39 38
27 27 28 29 30 32 33 35 36 37 38 39 39 40 40 41 41 42 43 43 44 45 46 48 48 49 50 51 51 52 52 52 52 53 53 53 54 54 54 54 54 55 56 57 57 57 57 57 56 55 54 53 52 52 53 54 53 52 51 51 51 50 50 49 48 48 48 47 45 44 43 41 41 40 40 40 40 41 41 41 40 39 39 38 37
26 27 28 29 31 33 34 36 37 38 39 39 40 40 40 40 41 42 43 44 45 46 47 48 48 49 49 49 49 50 50 50 51 51 52 52 52 53 53 53 53 53 54 55 56 56 55 55 55 54 53 53 52 51 51 51 51 51 51 50 50 50 50 49 49 47 46 45 44 43 41 40 40 40 39 39 40 41 41 40 40 39 38 37 36
28 29 30 31 33 34 35 36 37 38 39 39 40 40 40 41 42 42 44 45 46 46 47 47 47 47 47 47 48 48 48 49 49 50 50 51 51 51 51 51 51 52 53 53 54 54 54 54 54 53 53 53 53 52 51 51 51 50 51 51 51 51 51 50 48 46 45 44 43 41 40 39 39 39 39 39 40 41 40 40 39 38 37 37 35
30 31 33 34 35 37 38 38 39 39 40 40 40 41 42 43 44 44 45 45 45 45 45 46 46 46 46 46 46 46 47 47 47 47 48 47 47 48 48 49 49 50 51 52 52 53 53 54 54 54 54 54 55 54 54 53 53 52 51 51 51 51 50 49 47 46 44 42 41 40 39 39 39 39 39 39 40 40 40 39 38 37 36 36 35
33 35 36 38 39 40 41 41 41 41 41 41 42 43 44 44 45 45 45 45 45 45 44 44 45 45 45 45 45 45 45 45 45 45 45 45 46 46 47 48 49 49 50 51 52 53 54 55 55 56 56 56 56 56 56 56 55 54 53 53 52 51 50 49 47 45 43 41 40 39 39 38 38 38 39 39 39 39 39 38 37 36 35 34 33
37 39 40 41 41 42 42 42 42 42 43 43 44 45 45 45 45 45 44 44 44 44 44 44 44 44 44 44 44 44 44 44 44 45 45 45 46 47 48 49 50 50 51 52 53 55 56 56 57 57 58 57 58 57 57 57 56 56 55 55 54 53 51 49 47 45 43 41 40 39 39 38 38 38 38 38 38 38 38 37 36 35 33 32 31
40 42 42 42 42 42 42 43 43 43 44 44 45 45 44 44 44 44 44 44 44 43 43 43 43 43 43 43 44 44 44 44 45 45 46 46 47 48 48 49 51 52 53 54 55 56 57 58 58 58 58 57 57 57 57 57 56 56 56 55 54 53 51 49 47 45 44 42 41 40 39 39 39 38 37 37 37 37 36 35 34 34 32 31 30
42 42 43 43 43 43 44 44 44 44 44 44 43 44 44 43 43 43 43 43 42 42 42 42 42 43 43 43 44 44 44 44 45 45 46 46 47 48 49 50 51 53 54 55 56 56 57 57 57 57 57 57 57 56 56 56 56 56 55 55 54 53 50 47 45 45 44 43 41 40 39 39 38 37 36 35 36 36 35 34 32 32 31 30 29
41 42 42 43 43 43 43 43 43 43 43 43 43 43 43 43 42 42 41 41 41 41 42 42 42 43 43 43 44 44 44 44 45 45 46 47 48 49 50 51 52 53 54 55 55 55 56 56 57 57 57 57 57 57 57 57 57 57 55 54 53 51 48 45 44 43 43 42 41 40 39 38 36 35 34 34 34 34 33 32 31 30 30 30 30
40 41 41 41 41 42 42 42 43 43 43 43 43 43 42 42 41 40 40 40 40 41 41 42 42 42 42 43 43 44 44 44 45 46 47 48 49 51 52 53 53 54 54 54 54 54 55 55 55 55 55 55 54 54 55 55 55 55 54 52 50 48 45 43 42 41 41 40 39 39 38 36 34 33 33 32 32 32 31 30 29 29 29 29 29
39 40 40 40 41 41 42 42 43 43 42 42 42 41 41 40 40 40 40 41 41 41 41 41 41 42 42 42 43 43 44 45 46 47 48 49 50 51 52 52 52 52 52 53 53 53 53 53 52 51 50 49 49 49 49 49 49 49 48 47 45 44 42 40 39 39 38 38 38 37 35 33 32 32 31 31 31 30 29 28 27 27 28 29 29
39 40 40 41 42 42 42 42 42 41 41 41 41 40 40 40 40 40 40 40 40 40 40 40 41 41 41 42 42 43 44 45 46 47 48 48 49 49 49 49 49 49 50 50 50 50 49 47 46 46 45 44 43 43 42 42 43 42 41 40 40 39 38 38 37 37 36 36 35 34 32 31 31 30 29 29 29 28 27 27 26 27 28 28 28
41 41 42 42 43 42 42 42 41 40 40 40 40 40 40 40 39 39 39 39 39 40 40 40 41 41 41 42 42 43 44 44 45 46 46 46 46 46 46 46 46 46 47 46 45 44 43 42 41 40 39 37 36 35 35 34 35 35 35 34 34 34 34 34 34 34 34 33 32 31 30 29 28 27 27 27 27 26 25 25 26 27 27 27 27
42 43 43 43 43 43 42 41 41 40 40 39 39 39 39 38 38 38 38 39 39 39 40 40 40 41 41 41 42 42 43 43 43 43 43 42 42 42 42 42 43 43 42 41 40 39 37 37 35 34 32 31 29 28 26 26 26 27 28 28 29 29 30 31 31 30 30 30 29 28 28 27 26 25 25 25 25 24 24 25 26 26 26 26 26
43 44 44 43 43 42 42 41 40 40 39 38 38 37 37 37 38 38 38 39 39 39 39 40 40 40 40 40 41 41 41 41 41 40 39 39 39 38 38 38 38 38 38 37 36 34 33 32 31 29 27 25 23 21 19 19 19 20 21 22 23 25 25 26 26 26 27 27 27 26 25 24 23 23 23 23 23 23 24 24 25 25 25 24 24
42 42 42 42 42 41 41 40 39 38 37 37 37 37 37 37 38 38 38 39 39 39 39 39 39 39 39 39 39 39 39 38 37 36 35 35 34 34 34 34 34 34 33 33 32 31 29 28 26 25 22 20 18 16 15 14 14 15 16 17 19 20 21 21 22 23 24 24 24 23 22 21 21 21 21 22 22 22 23 23 24 24 23 23 22
40 40 41 41 40 40 39 38 37 37 36 36 36 37 37 38 38 38 38 38 38 38 38 38 38 38 37 37 37 37 36 35 34 33 32 31 30 30 30 30 30 30 30 29 28 27 26 25 23 21 19 17 15 14 13 12 12 12 13 14 15 16 17 18 19 20 20 20 20 20 19 19 19 19 20 21 21 22 22 22 22 22 22 21 21
39 39 40 40 39 39 38 37 37 36 36 36 37 37 38 38 38 38 38 38 38 38 37 37 36 36 36 35 35 34 33 32 30 29 28 27 26 26 26 26 26 27 27 26 25 24 23 22 20 19 17 16 14 13 13 12 11 10 10 11 12 13 14 14 15 16 17 17 17 17 17 17 17 18 19 20 20 20 20 21 21 21 21 21 21
38 38 39 39 39 38 37 37 36 36 37 37 37 37 37 38 38 37 37 37 37 36 36 35 34 34 34 33 33 32 31 29 28 26 25 24 24 23 23 23 23 24 24 23 23 22 21 20 18 17 16 14 13 12 12 11 10 9 9 9 10 10 11 12 13 14 14 15 15 15 16 16 17 18 19 19 19 19 19 20 21 21 21 21 20
Wind_Direction
238 237 237 237 239 241 244 248 251 253 254 255 256 258 260 263 266 269 272 275 277 279 282 283 285 288 291 294 296 298 301 303 305 307 308 311 313 313 314 314 316 318 319 317 315 315 314 314 313 314 314 314 314 313 313 312 312 312 312 313 312 312 312 311 311 312 313 312 310 310 310 310 311 311 310 310 310 311 312 312 312 312 311 310 308
240 239 239 240 242 244 248 251 253 254 255 256 258 260 262 265 268 271 273 275 278 279 282 284 286 289 291 294 296 298 301 303 304 306 309 311 312 312 313 314 317 319 318 316 314 313 312 312 312 313 313 314 313 313 312 311 311 312 312 312 312 311 311 311 311 313 315 315 313 312 312 312 312 312 312 313 314 314 315 315 315 315 314 313 311
238 238 239 240 243 247 251 254 254 255 257 258 260 262 264 266 269 271 273 275 278 280 282 284 287 289 292 294 296 297 299 301 303 305 307 309 310 312 313 315 317 318 316 313 311 310 310 310 311 312 313 312 312 311 310 310 311 312 312 312 312 312 311 312 312 314 316 318 316 314 314 314 313 314 314 315 316 316 316 317 317 317 317 316 314
237 238 239 241 244 249 253 255 257 258 259 261 262 264 265 267 269 271 274 276 278 280 283 285 288 290 292 293 294 296 298 299 301 304 305 308 311 313 314 314 315 314 311 309 309 308 307 309 310 311 311 311 310 308 308 308 310 312 313 313 313 313 313 313 314 315 316 318 317 315 314 315 315 315 315 315 315 316 316 317 318 319 319 318 315
237 238 239 242 247 252 256 258 259 261 262 263 264 265 266 268 270 272 275 277 279 281 284 286 288 289 291 292 293 294 295 297 300 302 305 308 311 312 312 312 311 309 307 306 306 305 305 307 308 309 309 308 306 305 306 308 310 312 313 314 314 314 314 314 314 314 314 314 315 315 314 314 315 315 315 315 314 315 315 317 318 320 321 320 317
237 238 241 244 249 254 257 259 261 262 264 264 265 266 267 269 271 274 276 278 280 282 284 286 287 288 289 290 291 292 294 296 299 302 305 308 309 310 309 308 307 305 304 303 302 302 304 305 306 306 306 305 303 302 304 307 309 311 312 313 313 313 313 312 312 312 311 311 312 313 313 313 314 314 314 314 315 315 316 317 319 322 322 321 318
237 240 243 247 251 255 258 261 263 264 265 265 266 267 268 270 273 275 277 278 280 282 284 285 286 286 288 289 290 291 292 295 298 301 304 306 307 307 306 304 303 302 301 300 300 301 302 303 303 303 303 302 299 299 301 304 306 308 309 310 311 310 310 310 310 309 309 309 310 311 311 312 313 314 314 315 316 317 318 319 320 322 323 321 318
239 241 246 250 253 258 261 263 264 265 265 266 266 268 270 272 274 276 277 279 281 282 283 283 283 285 287 288 288 289 291 294 298 300 303 305 305 304 302 302 301 299 298 298 298 299 301 301 301 301 301 299 296 295 298 301 303 304 306 307 307 307 307 308 307 307 307 308 308 309 310 311 312 313 314 316 317 319 320 321 322 323 323 321 319
241 244 248 253 256 260 262 264 265 266 267 267 268 270 272 274 275 276 277 279 280 280 281 281 283 285 286 286 286 288 290 293 297 299 301 302 302 300 300 299 298 297 296 295 296 298 299 299 299 299 299 297 293 293 295 297 299 301 302 304 304 304 305 305 305 305 305 305 306 307 309 310 311 312 315 317 319 320 321 320 321 323 323 322 320
244 246 250 254 257 260 263 264 266 267 269 270 271 272 273 274 275 276 277 278 278 279 280 281 283 284 284 284 285 287 289 293 295 297 299 300 298 297 298 297 296 294 294 294 295 297 297 297 297 298 298 296 292 291 292 294 295 297 299 300 300 301 302 302 302 302 303 304 305 306 307 309 310 313 316 318 318 319 319 320 321 323 324 323 322
246 247 249 252 256 261 264 265 267 269 270 271 271 272 273 274 274 275 276 277 278 279 280 281 282 282 282 282 284 286 289 292 294 297 297 297 296 296 295 294 294 293 292 293 294 295 296 295 296 297 298 296 293 291 290 291 293 294 296 297 297 298 299 299 300 300 301 302 303 304 306 308 310 313 316 317 316 317 318 321 323 325 325 325 325
247 247 247 250 257 263 266 266 266 268 269 270 271 272 272 273 273 275 276 277 278 279 279 280 279 279 280 281 283 286 288 291 294 295 294 293 294 294 293 293 293 292 291 292 294 294 294 294 294 296 297 297 295 292 291 291 291 292 293 294 295 296 297 298 298 299 299 300 302 303 305 306 309 312 313 314 315 317 319 322 325 326 327 327 326
246 246 246 250 257 264 267 265 264 267 269 270 271 271 271 272 273 274 276 277 277 277 277 277 277 278 279 281 282 285 287 290 292 292 291 291 292 292 291 292 292 292 292 292 293 293 293 293 294 295 297 297 297 294 292 291 291 291 292 293 294 295 296 297 298 299 299 300 301 303 304 306 308 309 310 312 315 318 320 323 326 326 327 328 326
243 244 246 250 257 264 269 268 266 267 268 268 268 268 269 271 272 273 274 275 275 275 275 276 276 277 278 279 281 284 287 289 289 288 289 290 290 290 290 291 292 292 292 292 293 292 292 293 294 295 296 297 297 296 295 293 292 291 292 293 294 295 296 297 298 299 299 300 301 303 304 304 305 306 309 313 316 319 321 324 326 326 327 328 326
240 242 247 252 258 266 270 270 268 267 267 266 266 266 267 269 270 272 273 273 274 274 273 273 274 275 276 278 280 283 285 285 285 286 287 288 288 289 290 291 292 291 291 292 292 292 293 293 294 295 296 297 298 298 297 296 295 293 293 293 294 295 297 298 298 298 299 301 301 302 302 302 303 306 309 313 317 319 322 324 325 326 327 327 325
241 243 248 253 260 267 270 268 267 266 266 265 265 265 266 268 269 270 271 271 271 270 270 271 272 273 275 277 279 281 282 282 283 285 285 285 286 288 290 291 291 291 291 292 292 293 294 294 294 295 296 298 299 299 299 298 297 296 296 295 295 296 297 298 298 298 299 300 301 301 300 302 304 307 311 314 317 319 321 323 324 325 326 326 324
243 245 250 257 264 269 268 265 264 264 264 264 264 265 266 267 268 268 268 268 267 267 268 269 270 271 273 275 278 279 280 280 281 283 284 284 286 288 289 290 290 290 291 291 292 293 294 294 295 296 297 299 299 300 300 300 299 298 298 297 297 298 298 298 297 298 299 301 301 301 301 302 304 308 311 314 317 318 320 322 323 324 325 325 323
245 250 256 263 267 266 264 263 263 263 262 263 264 266 267 267 267 267 266 265 264 264 264 266 268 270 272 275 276 277 278 279 280 281 283 284 285 287 288 288 289 290 291 291 292 293 293 294 295 296 298 299 300 301 301 300 299 299 299 299 299 300 299 298 297 298 300 301 301 300 301 302 304 307 311 314 316 318 319 321 322 323 324 324 323
251 257 261 263 263 261 261 262 262 262 263 265 266 267 268 268 267 265 264 263 262 262 264 266 269 271 272 274 275 276 278 278 279 281 282 283 284 285 286 287 288 290 291 291 291 292 292 294 295 297 298 299 300 301 301 301 301 301 301 300 301 301 300 298 297 299 301 302 301 301 301 303 305 308 310 313 315 317 318 320 321 323 324 324 322
257 259 261 261 260 259 261 262 263 264 266 267 267 267 267 266 265 265 264 264 264 265 266 268 270 272 273 274 275 277 278 279 279 280 281 282 283 284 285 286 288 290 290 290 290 291 292 294 295 297 298 299 300 301 301 301 301 302 302 302 302 302 299 298 299 301 302 301 301 302 302 303 305 307 309 312 314 316 317 319 320 322 323 323 321
258 258 259 258 258 260 262 263 264 265 265 265 265 265 266 266 267 267 267 267 267 268 269 270 271 272 273 274 275 277 278 280 280 280 280 281 282 283 284 286 288 288 288 288 289 291 293 294 295 296 298 299 300 301 301 301 301 301 302 304 304 301 299 300 302 302 302 302 302 303 303 303 305 306 308 311 313 314 316 317 319 321 322 321 320
259 259 258 258 260 262 262 263 264 263 263 264 265 266 267 268 268 269 269 269 269 270 270 271 272 273 273 274 276 278 279 280 280 280 280 280 281 282 284 286 286 286 286 287 289 290 292 294 295 296 298 299 300 301 301 301 301 301 301 303 304 302 300 302 303 302 301 302 303 302 302 303 303 305 307 310 312 313 315 316 318 319 320 320 319
262 262 261 262 263 262 262 262 262 263 264 265 266 267 268 269 269 269 269 269 269 269 270 270 271 272 274 276 278 280 280 280 279 279 279 280 281 282 283 285 285 285 286 287 288 290 292 293 293 294 295 297 298 299 298 298 299 301 300 299 300 300 300 302 302 301 301 302 302 301 301 301 303 304 306 308 310 311 313 315 316 318 319 319 318
264 264 263 263 262 261 262 263 265 266 267 268 269 270 270 270 270 269 268 268 268 268 269 271 272 274 276 277 279 280 280 279 279 279 279 279 280 281 282 283 284 284 285 287 288 290 290 290 291 292 294 295 296 295 296 295 294 295 297 297 296 297 299 301 301 300 300 300 300 300 300 300 302 303 305 307 308 310 312 314 315 316 318 318 317
264 263 262 262 263 264 266 268 270 271 271 271 272 272 270 269 268 267 267 267 268 270 272 273 275 277 277 278 279 279 279 278 278 279 278 278 278 279 280 281 282 283 285 286 287 288 288 288 290 291 292 293 293 293 294 294 291 290 294 296 294 293 297 300 300 298 297 297 297 298 298 299 300 301 303 305 307 309 311 312 314 315 316 316 316
263 263 265 266 268 270 271 272 273 273 273 274 273 272 271 270 270 269 270 271 273 275 276 276 277 278 278 279 279 278 278 278 278 278 278 278 278 278 278 279 281 282 283 285 286 288 289 289 289 289 288 289 290 291 292 292 291 291 292 293 292 291 294 297 298 296 295 294 295 296 297 298 298 299 301 303 305 307 309 311 313 313 314 314 314
266 268 270 271 273 275 275 275 275 275 275 274 273 272 272 272 273 274 275 276 277 277 278 278 278 278 278 278 278 277 278 279 280 280 279 278 277 277 277 278 279 281 282 284 286 287 289 289 287 287 287 287 288 289 290 290 290 290 290 290 289 289 291 294 294 293 293 293 293 294 295 295 295 296 299 302 304 306 307 309 312 313 313 313 312
273 275 277 277 278 279 278 277 276 275 274 273 273 273 273 274 275 276 277 277 278 278 278 278 278 278 278 278 278 278 279 280 281 281 280 279 279 279 279 280 281 282 283 283 283 284 285 286 286 286 287 287 287 287 288 288 288 287 286 286 285 286 288 290 290 290 291 291 291 291 292 293 293 294 296 300 303 304 306 308 310 311 312 312 311
279 281 282 281 281 279 278 277 276 274 274 274 274 274 275 276 276 277 277 277 277 277 278 278 278 278 278 278 279 280 280 281 281 280 280 281 282 282 283 283 283 283 282 282 281 282 283 284 285 285 286 286 285 286 286 286 286 284 283 282 282 283 285 286 287 287 288 289 288 288 289 290 291 291 294 298 301 303 304 306 308 310 310 310 310
283 284 283 282 280 279 277 276 275 275 275 275 276 276 277 277 278 278 278 278 277 277 277 277 278 278 278 279 280 280 280 280 280 280 281 282 282 283 283 283 283 282 282 281 281 282 283 283 284 285 284 284 284 284 284 284 283 283 282 282 283 283 284 284 284 285 287 287 286 285 286 288 288 289 292 296 299 301 302 304 306 308 309 309 308
284 282 280 279 278 278 277 276 276 276 277 277 278 279 279 279 279 279 279 279 279 279 278 279 279 279 279 279 279 279 279 279 280 281 281 282 282 283 283 283 283 282 282 281 281 282 283 284 285 286 286 285 285 284 283 283 283 283 283 283 283 282 282 282 282 283 285 286 285 283 284 286 287 288 291 294 297 300 300 302 304 306 307 307 307
281 278 276 275 275 275 276 276 276 277 278 278 278 278 278 279 279 279 279 279 279 279 279 279 279 279 279 279 279 279 280 280 281 281 282 282 283 283 283 283 283 283 282 282 282 283 284 285 286 286 285 285 284 284 283 282 282 283 282 281 280 280 280 280 281 282 285 286 284 281 282 284 285 286 289 292 295 298 299 300 302 304 305 305 305
279 278 278 277 276 276 276 276 276 277 277 277 277 278 278 278 278 279 279 279 279 279 279 279 279 279 280 280 280 281 281 282 282 283 283 283 283 283 283 283 284 284 284 284 284 284 283 283 284 284 284 284 284 283 282 281 280 280 279 278 278 278 279 280 281 282 284 284 282 280 280 282 283 284 287 290 294 296 297 299 301 303 304 303 303
279 279 279 278 278 277 277 277 277 277 278 278 279 279 278 278 278 278 278 279 279 279 279 279 280 281 281 282 283 283 284 284 285 285 285 285 285 285 285 285 285 285 284 284 284 285 284 284 284 284 284 284 284 283 283 281 280 279 279 278 278 279 279 280 281 282 283 282 280 278 278 279 280 282 285 288 292 294 296 298 301 302 303 302 302
280 280 280 280 280 279 279 279 280 280 280 280 280 279 279 279 279 279 279 280 281 281 282 282 283 283 284 285 285 286 286 287 287 288 288 288 288 288 288 287 286 285 284 284 285 286 286 287 286 286 286 286 286 285 285 284 282 281 280 280 279 279 279 280 280 280 280 279 277 277 277 277 278 280 283 287 290 292 295 297 300 302 302 301 301
285 286 286 286 286 285 285 285 284 283 282 281 281 281 280 281 281 282 282 283 283 284 285 286 286 287 287 287 287 288 288 288 289 289 289 289 289 288 288 287 286 286 286 286 287 288 288 288 288 288 288 287 287 286 285 284 283 281 280 279 278 278 278 278 278 277 276 275 275 275 275 275 276 278 281 284 287 291 293 296 298 300 300 299 300
290 291 290 290 290 289 288 287 286 285 284 283 283 283 283 284 284 285 285 285 286 286 287 287 288 288 289 289 289 289 289 289 289 289 289 289 288 288 288 288 288 288 288 288 289 289 289 289 288 288 287 286 285 284 283 281 280 279 277 276 275 275 275 275 274 273 272 271 272 272 272 273 273 276 279 282 285 289 291 294 296 298 297 297 298
290 290 290 290 289 288 288 287 286 285 285 285 285 285 285 286 286 286 287 287 287 288 288 288 289 289 289 290 290 290 289 289 289 289 289 289 289 289 290 290 290 290 290 290 290 290 290 289 288 287 286 285 284 282 281 280 278 277 276 274 274 273 273 273 272 270 268 267 267 268 268 269 270 272 275 279 283 286 289 292 295 295 295 295 297
289 289 289 289 288 288 287 286 286 286 286 286 286 286 286 286 286 287 287 288 288 289 289 289 289 289 290 290 290 289 289 290 290 290 291 291 291 292 292 292 292 293 293 293 292 292 291 290 289 288 286 285 283 282 280 279 277 275 274 273 272 271 271 271 270 268 266 265 264 264 265 266 267 269 272 276 280 284 287 290 293 293 293 293 296
290 290 289 289 288 288 288 287 287 287 287 286 286 286 286 287 287 287 288 288 289 289 289 290 290 289 289 289 289 290 290 291 291 292 292 293 293 294 294 294 295 295 295 295 294 293 292 291 290 289 288 286 284 282 279 277 275 273 272 271 270 270 269 268 267 266 264 263 262 262 263 264 265 267 271 275 278 282 285 289 291 291 291 293 296
291 290 289 289 289 288 288 288 287 287 287 287 287 287 288 288 288 289 289 289 289 289 289 289 289 289 289 290 291 291 292 293 293 294 294 295 296 296 296 297 297 297 297 296 296 295 294 293 291 290 288 286 283 280 278 275 273 271 270 269 269 268 267 265 264 263 263 263 262 262 262 263 265 267 270 274 278 281 285 288 289 289 290 293 296
291 290 290 289 289 288 288 288 287 288 288 289 289 289 290 290 290 290 290 289 289 289 289 289 289 290 291 292 293 293 294 295 296 296 297 298 298 299 299 299 299 299 299 298 297 296 295 294 292 291 289 286 284 281 278 275 273 271 269 268 266 265 264 263 261 261 262 262 261 262 262 264 266 268 271 274 278 281 284 286 287 287 289 293 296
290 290 289 289 289 289 289 289 290 290 290 291 291 291 291 291 290 290 289 289 289 289 289 290 291 292 293 294 295 296 297 298 298 299 300 301 302 302 302 302 301 301 300 299 299 298 297 296 295 293 291 289 286 283 279 275 272 270 268 265 263 261 260 259 258 258 259 259 259 260 262 264 266 268 271 274 277 280 283 284 284 286 289 292 295
290 291 291 292 292 292 292 292 292 292 292 292 291 291 290 290 289 289 289 289 290 291 292 292 293 294 295 296 297 298 299 300 301 302 303 304 304 304 303 303 302 302 302 302 302 302 301 300 299 298 296 293 290 285 281 276 272 268 265 262 259 258 257 256 255 255 255 256 257 259 260 262 265 267 270 274 277 280 281 282 283 286 289 292 294
292 293 294 294 295 294 294 293 293 292 291 290 290 289 289 289 289 290 291 291 292 293 293 294 295 296 297 297 298 300 301 302 303 304 305 305 304 304 304 303 304 305 306 306 306 306 306 306 306 304 302 299 295 291 285 279 274 269 265 261 257 255 254 253 253 253 253 255 256 257 259 261 264 267 270 274 277 278 279 280 283 287 289 291 293
294 294 295 295 295 294 294 293 292 291 290 290 289 289 290 290 291 291 292 293 293 294 295 295 296 297 298 299 301 302 303 304 305 305 305 305 305 304 305 306 307 309 311 311 310 311 312 313 313 312 310 307 304 299 292 285 279 272 267 262 258 255 254 252 252 252 253 254 255 257 259 261 263 267 270 274 275 276 277 280 284 287 289 291 293
295 295 296 296 295 295 294 293 292 291 291 290 290 290 290 291 292 293 293 294 295 296 296 297 298 299 300 302 303 304 305 305 305 305 305 305 305 306 307 309 311 314 315 316 315 316 318 320 320 319 318 316 313 309 301 292 284 275 268 264 260 256 254 253 252 253 253 254 256 257 259 261 264 267 271 272 273 275 278 282 285 287 289 292 294
297 297 297 297 296 295 294 293 293 292 291 291 291 291 292 293 294 294 295 296 296 297 298 299 300 301 302 303 304 304 305 305 304 305 305 306 307 309 310 312 315 318 320 320 320 321 323 325 326 325 324 323 322 317 309 298 286 277 270 266 262 259 256 255 253 253 254 255 257 258 259 262 265 268 269 270 272 275 279 282 285 287 290 292 294
299 299 298 297 295 294 293 293 292 292 291 292 292 293 294 294 295 296 296 297 297 298 299 300 301 302 303 303 304 304 303 303 303 305 306 307 310 312 313 315 317 321 324 325 325 325 325 327 329 329 330 329 327 323 315 305 293 281 273 268 265 262 259 257 256 256 256 257 257 259 261 264 266 267 268 270 273 276 280 282 285 288 291 293 294
300 298 297 295 294 293 292 291 291 292 292 293 294 294 295 295 296 296 297 297 298 298 300 301 301 302 303 303 303 302 302 302 303 305 306 309 311 314 316 318 320 323 325 328 329 329 329 330 330 331 332 331 330 328 324 317 309 298 286 278 272 267 264 261 259 257 257 257 259 262 264 266 266 267 268 271 274 277 280 283 286 289 291 292 294
299 297 295 293 292 291 290 290 291 292 293 294 295 295 295 296 296 296 297 297 298 299 300 301 302 302 302 302 301 300 300 301 302 303 305 308 311 314 317 320 322 324 326 328 330 332 334 335 334 334 333 331 330 328 326 323 318 310 298 287 279 273 268 264 261 259 259 260 262 264 265 266 266 268 270 273 276 280 282 285 287 290 291 292 293
Height
3118 3119 3120 3121 3122 3122 3123 3123 3124 3124 3124 3124 3124 3125 3125 3125 3125 3125 3125 3125 3124 3124 3123 3123 3122 3121 3119 3118 3117 3115 3114 3113 3112 3111 3109 3108 3106 3105 3103 3102 3101 3099 3097 3095 3094 3092 3090 3089 3087 3085 3083 3081 3078 3076 3075 3073 3071 3069 3068 3066 3065 3063 3062 3061 3059 3059 3059 3056 3053 3051 3048 3046 3044 3042 3040 3039 3037 3034 3032 3029 3026 3023 3020 3017 3013
3115 3116 3117 3118 3118 3119 3120 3120 3120 3120 3120 3121 3121 3121 3121 3121 3121 3121 3121 3121 3120 3120 3119 3119 3118 3116 3115 3114 3113 3112 3110 3109 3108 3107 3106 3104 3102 3101 3100 3098 3097 3095 3093 3091 3090 3088 3086 3084 3083 3081 3078 3076 3074 3073 3071 3069 3067 3066 3064 3063 3061 3059 3058 3057 3055 3054 3054 3053 3050 3047 3045 3042 3040 3038 3036 3034 3032 3029 3027 3025 3021 3018 3015 3011 3007
3112 3113 3113 3114 3115 3115 3116 3116 3116 3116 3117 3117 3117 3117 3117 3117 3117 3117 3117 3116 3116 3116 3115 3114 3113 3112 3111 3110 3109 3108 3107 3106 3105 3103 3102 3100 3098 3097 3096 3094 3092 3091 3089 3088 3086 3084 3082 3080 3078 3076 3074 3072 3071 3069 3068 3066 3064 3062 3061 3059 3057 3056 3054 3052 3051 3049 3049 3048 3046 3043 3041 3039 3036 3034 3032 3029 3027 3025 3022 3019 3016 3013 3009 3004 3000
3108 3108 3109 3110 3111 3111 3112 3112 3113 3113 3113 3113 3113 3113 3113 3113 3113 3112 3112 3112 3112 3111 3111 3110 3109 3108 3107 3106 3105 3104 3103 3102 3101 3099 3098 3096 3094 3093 3092 3090 3088 3087 3085 3084 3082 3080 3078 3076 3074 3072 3070 3069 3067 3066 3064 3062 3060 3059 3057 3055 3054 3052 3050 3049 3047 3045 3044 3043 3042 3039 3037 3035 3032 3029 3027 3025 3023 3020 3017 3014 3011 3007 3003 2998 2994
3103 3104 3106 3106 3107 3107 3108 3108 3109 3109 3109 3109 3109 3109 3109 3109 3108 3108 3108 3108 3107 3107 3106 3105 3104 3104 3103 3102 3101 3100 3099 3098 3097 3095 3094 3092 3090 3089 3088 3086 3085 3083 3081 3080 3078 3076 3074 3072 3070 3069 3067 3065 3064 3062 3061 3059 3057 3056 3054 3052 3050 3049 3047 3045 3043 3042 3040 3038 3037 3036 3033 3030 3028 3025 3023 3020 3018 3016 3013 3010 3006 3001 2997 2993 2988
3099 3100 3101 3102 3103 3103 3104 3104 3104 3105 3105 3105 3105 3104 3104 3104 3104 3103 3103 3103 3103 3102 3101 3101 3100 3100 3099 3098 3097 3096 3095 3094 3092 3091 3089 3088 3087 3085 3084 3082 3081 3079 3077 3076 3074 3073 3071 3069 3067 3065 3064 3062 3061 3059 3057 3055 3054 3052 3051 3049 3047 3045 3043 3042 3040 3038 3036 3034 3033 3031 3029 3026 3024 3021 3018 3015 3012 3009 3007 3005 3002 2996 2991 2986 2982
3095 3096 3097 3097 3098 3099 3100 3100 3100 3100 3100 3100 3100 3100 3099 3099 3099 3099 3099 3098 3098 3097 3097 3096 3096 3095 3095 3094 3093 3092 3091 3089 3088 3087 3085 3084 3083 3081 3080 3078 3077 3075 3073 3072 3070 3069 3067 3065 3063 3062 3061 3059 3057 3056 3054 3052 3051 3049 3047 3046 3044 3042 3040 3038 3036 3034 3032 3030 3028 3027 3025 3022 3020 3017 3014 3010 3007 3003 2998 2996 2994 2991 2986 2981 2975
3090 3091 3092 3093 3094 3095 3095 3095 3095 3096 3096 3095 3095 3094 3094 3094 3094 3094 3094 3094 3094 3093 3092 3092 3091 3091 3090 3089 3088 3087 3086 3085 3084 3083 3081 3080 3079 3077 3076 3074 3072 3071 3069 3068 3066 3065 3063 3061 3060 3058 3057 3056 3054 3052 3051 3049 3047 3046 3044 3042 3040 3038 3036 3035 3033 3030 3028 3026 3024 3022 3020 3018 3015 3012 3009 3005 3002 2998 2993 2988 2985 2983 2979 2975 2970
3086 3087 3087 3088 3090 3090 3090 3090 3090 3090 3090 3090 3090 3089 3090 3090 3090 3089 3089 3089 3089 3088 3088 3087 3087 3086 3086 3085 3084 3083 3082 3081 3080 3078 3077 3075 3074 3073 3071 3070 3068 3067 3065 3063 3062 3061 3059 3057 3056 3055 3054 3052 3050 3049 3047 3046 3044 3042 3040 3038 3036 3035 3033 3031 3029 3026 3024 3022 3020 3017 3015 3013 3010 3007 3004 3000 2995 2992 2988 2983 2980 2976 2972 2968 2965
3082 3082 3083 3084 3085 3085 3085 3085 3085 3085 3085 3085 3085 3085 3085 3085 3085 3085 3085 3085 3085 3084 3083 3083 3082 3082 3081 3080 3079 3078 3077 3076 3075 3073 3072 3071 3070 3068 3067 3065 3064 3063 3061 3059 3058 3057 3055 3054 3052 3051 3050 3048 3046 3045 3043 3041 3040 3038 3037 3035 3033 3031 3029 3027 3024 3022 3020 3017 3015 3012 3010 3008 3005 3001 2998 2995 2990 2986 2983 2979 2975 2971 2965 2960 2957
3077 3078 3079 3080 3080 3080 3081 3081 3081 3080 3080 3081 3081 3081 3081 3080 3080 3080 3080 3080 3080 3079 3079 3078 3078 3077 3076 3075 3074 3073 3072 3071 3070 3069 3068 3067 3065 3064 3062 3061 3060 3058 3057 3055 3054 3052 3051 3049 3048 3047 3045 3043 3042 3040 3039 3037 3035 3034 3032 3030 3029 3027 3025 3023 3020 3018 3015 3012 3010 3007 3005 3003 3000 2996 2993 2990 2986 2982 2978 2974 2969 2964 2958 2953 2949
3073 3074 3074 3075 3075 3076 3076 3076 3076 3076 3076 3076 3076 3076 3076 3075 3076 3076 3076 3076 3075 3074 3074 3074 3073 3072 3071 3070 3069 3068 3067 3066 3065 3064 3063 3062 3061 3059 3058 3057 3055 3054 3053 3051 3050 3048 3047 3045 3044 3043 3041 3039 3037 3036 3034 3033 3031 3029 3028 3026 3024 3022 3020 3017 3015 3013 3010 3008 3005 3002 3000 2997 2995 2991 2988 2985 2981 2977 2973 2969 2964 2958 2953 2947 2943
3069 3070 3070 3070 3070 3071 3071 3071 3071 3071 3071 3072 3071 3071 3070 3071 3071 3071 3071 3071 3070 3070 3069 3069 3068 3067 3066 3066 3065 3064 3063 3061 3060 3059 3058 3057 3056 3054 3053 3052 3051 3050 3048 3047 3046 3044 3042 3041 3039 3038 3036 3034 3033 3031 3030 3028 3026 3024 3023 3021 3019 3017 3015 3012 3010 3007 3005 3002 3000 2997 2994 2991 2990 2987 2983 2979 2976 2971 2967 2964 2959 2953 2949 2944 2939
3064 3065 3065 3065 3065 3066 3066 3066 3066 3066 3066 3066 3066 3065 3066 3066 3066 3066 3066 3066 3065 3065 3064 3063 3063 3062 3062 3061 3060 3059 3058 3056 3055 3054 3053 3052 3051 3050 3049 3047 3046 3045 3044 3043 3041 3039 3038 3037 3035 3033 3031 3029 3028 3026 3025 3023 3022 3020 3018 3016 3014 3012 3010 3008 3005 3002 3000 2997 2995 2992 2989 2986 2984 2982 2979 2974 2970 2966 2961 2957 2953 2948 2944 2941 2936
3059 3059 3060 3060 3060 3061 3061 3061 3061 3061 3061 3061 3060 3060 3060 3061 3061 3061 3060 3060 3060 3060 3059 3058 3058 3057 3057 3056 3055 3054 3053 3052 3050 3050 3049 3047 3046 3045 3044 3043 3042 3041 3039 3038 3037 3035 3033 3032 3030 3028 3027 3025 3023 3021 3020 3018 3017 3015 3013 3011 3009 3007 3005 3003 3000 2997 2995 2992 2990 2987 2984 2981 2978 2976 2973 2969 2965 2961 2957 2952 2947 2942 2939 2937 2934
3053 3053 3054 3055 3055 3056 3056 3056 3056 3056 3056 3055 3055 3055 3055 3055 3055 3055 3055 3055 3055 3054 3054 3053 3053 3052 3052 3051 3049 3049 3048 3047 3045 3045 3044 3042 3041 3040 3040 3039 3037 3036 3035 3034 3032 3030 3028 3027 3025 3024 3022 3020 3018 3016 3014 3013 3012 3010 3008 3006 3004 3002 3000 2998 2995 2992 2990 2988 2985 2982 2979 2976 2973 2970 2967 2964 2960 2957 2953 2949 2944 2939 2935 2932 2930
3047 3048 3048 3049 3050 3050 3051 3051 3051 3050 3050 3050 3050 3050 3050 3050 3050 3050 3049 3049 3049 3049 3048 3048 3047 3047 3046 3045 3044 3044 3043 3042 3041 3040 3039 3038 3036 3035 3035 3034 3033 3032 3031 3029 3027 3025 3023 3022 3020 3019 3017 3016 3013 3011 3009 3008 3006 3005 3003 3001 2999 2998 2996 2993 2990 2987 2985 2983 2980 2977 2974 2971 2968 2965 2962 2959 2955 2952 2948 2945 2941 2936 2931 2928 2925
3042 3042 3043 3043 3044 3044 3045 3045 3045 3045 3045 3045 3045 3045 3045 3045 3045 3044 3044 3044 3044 3043 3043 3042 3041 3041 3041 3040 3039 3039 3039 3037 3036 3035 3034 3033 3031 3031 3030 3029 3028 3027 3026 3024 3022 3020 3019 3017 3015 3014 3013 3011 3008 3006 3004 3002 3001 2999 2998 2996 2994 2993 2991 2988 2985 2983 2981 2978 2975 2972 2969 2966 2963 2960 2957 2954 2950 2947 2944 2940 2936 2932 2927 2923 2919
3036 3036 3037 3037 3038 3039 3039 3040 3040 3040 3040 3040 3041 3040 3040 3040 3039 3039 3038 3038 3038 3038 3037 3036 3036 3036 3036 3035 3034 3034 3034 3033 3031 3030 3029 3028 3026 3026 3025 3023 3022 3022 3021 3019 3017 3015 3014 3013 3011 3009 3007 3005 3003 3001 2999 2997 2996 2994 2992 2990 2989 2988 2985 2982 2980 2978 2976 2973 2971 2968 2964 2961 2958 2955 2952 2949 2946 2943 2939 2935 2932 2927 2923 2919 2915
3031 3031 3031 3032 3034 3034 3035 3036 3036 3036 3036 3036 3035 3035 3034 3034 3034 3033 3033 3033 3033 3032 3032 3031 3031 3031 3031 3030 3029 3029 3029 3028 3026 3025 3024 3023 3022 3021 3020 3018 3017 3017 3015 3013 3012 3010 3009 3008 3006 3004 3002 3000 2999 2997 2995 2993 2991 2989 2987 2985 2984 2982 2980 2977 2975 2973 2971 2968 2966 2963 2960 2956 2953 2951 2948 2945 2942 2938 2935 2931 2927 2923 2919 2916 2912
3026 3026 3027 3028 3029 3030 3031 3031 3031 3031 3031 3030 3030 3029 3029 3029 3029 3029 3028 3028 3027 3027 3027 3027 3026 3026 3026 3025 3024 3024 3024 3023 3022 3020 3018 3018 3017 3015 3014 3013 3012 3011 3009 3008 3006 3005 3004 3003 3001 2999 2996 2995 2993 2992 2990 2988 2986 2984 2982 2981 2979 2977 2974 2972 2970 2968 2965 2963 2960 2958 2955 2952 2949 2946 2943 2940 2937 2934 2930 2927 2923 2919 2915 2912 2909
3022 3022 3023 3024 3025 3026 3026 3026 3026 3026 3026 3025 3025 3025 3025 3025 3024 3024 3023 3023 3023 3022 3022 3022 3021 3021 3021 3020 3020 3020 3019 3018 3017 3015 3014 3013 3011 3010 3009 3008 3007 3005 3003 3002 3001 3000 2999 2998 2996 2994 2991 2989 2988 2986 2984 2983 2980 2979 2977 2975 2973 2971 2968 2967 2965 2963 2960 2958 2955 2953 2950 2947 2945 2942 2939 2936 2933 2930 2927 2923 2919 2915 2912 2908 2905
3018 3018 3019 3020 3021 3021 3021 3021 3021 3021 3021 3021 3021 3020 3020 3020 3020 3019 3019 3018 3018 3018 3017 3017 3017 3016 3016 3016 3015 3015 3014 3013 3012 3010 3009 3008 3006 3004 3003 3002 3001 2999 2998 2997 2996 2995 2994 2992 2990 2988 2986 2984 2982 2981 2979 2977 2975 2973 2971 2970 2968 2965 2963 2962 2960 2957 2955 2953 2950 2948 2945 2943 2940 2937 2935 2932 2929 2926 2923 2919 2915 2911 2908 2905 2902
3014 3015 3016 3016 3017 3017 3017 3017 3017 3017 3017 3016 3016 3016 3016 3015 3015 3014 3014 3013 3013 3013 3013 3012 3011 3011 3011 3011 3011 3010 3009 3008 3006 3005 3004 3003 3001 2999 2997 2996 2995 2993 2992 2991 2990 2989 2987 2986 2984 2982 2980 2978 2977 2975 2973 2971 2969 2967 2965 2964 2962 2959 2957 2956 2954 2952 2950 2947 2945 2943 2940 2937 2935 2932 2930 2927 2924 2922 2919 2915 2911 2908 2905 2902 2900
3011 3012 3012 3012 3013 3013 3013 3013 3013 3012 3012 3012 3012 3011 3011 3010 3010 3010 3009 3009 3008 3008 3008 3007 3006 3006 3006 3006 3006 3005 3003 3002 3001 3000 2998 2997 2995 2994 2992 2990 2989 2987 2985 2985 2984 2982 2981 2979 2977 2975 2974 2972 2970 2968 2966 2964 2962 2960 2959 2957 2955 2953 2952 2950 2948 2946 2944 2942 2939 2937 2935 2932 2929 2927 2925 2922 2919 2917 2914 2911 2907 2903 2900 2899 2897
3008 3008 3008 3008 3008 3008 3008 3008 3008 3008 3008 3007 3007 3007 3006 3006 3006 3005 3004 3004 3004 3003 3003 3002 3001 3001 3000 3000 3000 2999 2997 2996 2995 2994 2992 2991 2990 2988 2986 2985 2983 2980 2978 2977 2976 2975 2974 2972 2970 2968 2967 2965 2963 2962 2960 2958 2956 2954 2952 2950 2948 2947 2945 2943 2942 2940 2938 2936 2934 2931 2929 2926 2924 2922 2920 2917 2914 2911 2909 2907 2903 2899 2896 2894 2893
3004 3004 3004 3004 3004 3004 3004 3004 3003 3003 3003 3003 3003 3002 3002 3001 3001 3000 3000 2999 2999 2998 2998 2997 2996 2996 2995 2995 2994 2992 2991 2990 2989 2988 2987 2985 2983 2982 2980 2978 2977 2974 2972 2971 2969 2967 2966 2965 2963 2961 2959 2958 2956 2954 2953 2952 2950 2948 2945 2943 2942 2940 2938 2937 2935 2933 2932 2930 2928 2925 2923 2921 2919 2917 2914 2912 2909 2906 2904 2901 2898 2895 2892 2890 2888
3000 3000 3000 3000 3000 3000 2999 2999 2999 2999 2999 2998 2998 2998 2997 2997 2996 2996 2995 2994 2994 2993 2992 2991 2991 2990 2989 2988 2987 2986 2985 2984 2983 2981 2980 2978 2976 2975 2973 2972 2970 2968 2966 2964 2962 2960 2958 2956 2955 2953 2952 2950 2948 2947 2945 2944 2943 2941 2939 2937 2934 2932 2931 2929 2928 2926 2925 2923 2921 2920 2917 2915 2914 2912 2909 2907 2904 2901 2899 2896 2893 2890 2887 2885 2883
2996 2996 2996 2996 2996 2995 2995 2995 2995 2994 2994 2994 2993 2993 2992 2992 2991 2991 2990 2989 2988 2987 2986 2986 2985 2983 2982 2982 2980 2979 2979 2978 2976 2974 2972 2970 2969 2968 2966 2965 2963 2961 2959 2956 2954 2952 2950 2948 2947 2945 2944 2942 2940 2939 2937 2936 2934 2933 2931 2929 2927 2925 2923 2922 2921 2919 2918 2916 2915 2913 2911 2910 2908 2906 2904 2901 2899 2896 2894 2891 2888 2885 2883 2880 2878
2992 2992 2991 2991 2991 2991 2991 2991 2990 2990 2990 2989 2989 2988 2988 2987 2986 2985 2984 2983 2982 2981 2980 2979 2978 2977 2976 2975 2973 2972 2971 2971 2969 2966 2965 2963 2962 2960 2958 2957 2955 2953 2951 2948 2945 2944 2943 2941 2939 2938 2936 2934 2932 2931 2929 2927 2926 2925 2923 2921 2919 2917 2916 2915 2914 2912 2910 2909 2908 2907 2905 2903 2902 2900 2898 2896 2894 2892 2889 2886 2883 2880 2878 2875 2873
2988 2987 2987 2987 2987 2987 2986 2986 2986 2986 2985 2985 2984 2983 2982 2981 2980 2980 2978 2977 2976 2975 2974 2973 2972 2970 2969 2968 2967 2965 2964 2963 2961 2959 2957 2956 2954 2952 2951 2949 2947 2945 2942 2939 2937 2936 2935 2933 2932 2930 2928 2926 2925 2924 2922 2920 2918 2917 2915 2913 2911 2909 2908 2908 2906 2905 2903 2902 2901 2900 2898 2897 2895 2894 2892 2890 2889 2887 2885 2882 2879 2876 2873 2871 2868
2983 2983 2983 2983 2983 2983 2982 2982 2982 2981 2980 2980 2979 2978 2977 2976 2974 2973 2973 2972 2970 2969 2968 2966 2965 2964 2962 2961 2960 2958 2957 2955 2954 2952 2950 2948 2946 2944 2943 2941 2939 2937 2934 2931 2929 2929 2927 2925 2924 2923 2920 2918 2917 2916 2914 2912 2910 2908 2907 2905 2903 2902 2901 2900 2899 2897 2896 2895 2894 2893 2891 2890 2889 2888 2886 2884 2883 2882 2880 2877 2874 2872 2869 2867 2864
2979 2979 2979 2979 2979 2978 2978 2977 2977 2976 2975 2975 2974 2973 2972 2970 2969 2967 2967 2966 2965 2963 2961 2960 2958 2957 2956 2954 2952 2951 2949 2948 2946 2944 2942 2940 2938 2937 2935 2933 2932 2929 2926 2923 2921 2921 2920 2918 2916 2915 2912 2910 2909 2908 2906 2904 2902 2900 2899 2897 2896 2894 2893 2892 2891 2890 2889 2888 2887 2886 2885 2884 2882 2881 2880 2878 2877 2876 2874 2872 2869 2867 2865 2862 2861
2975 2975 2975 2975 2974 2973 2973 2972 2972 2971 2970 2969 2968 2967 2966 2965 2963 2962 2960 2959 2958 2957 2955 2953 2952 2950 2949 2947 2945 2943 2942 2940 2938 2936 2934 2933 2931 2929 2927 2926 2924 2922 2919 2915 2913 2912 2911 2910 2908 2907 2904 2903 2901 2900 2898 2896 2894 2892 2891 2889 2888 2887 2886 2884 2884 2883 2882 2881 2880 2879 2878 2877 2876 2875 2874 2872 2871 2870 2869 2866 2864 2862 2860 2858 2856
2971 2970 2970 2970 2969 2968 2968 2967 2966 2965 2964 2963 2962 2961 2960 2958 2957 2956 2955 2953 2951 2949 2948 2946 2945 2943 2942 2940 2938 2936 2934 2933 2931 2929 2927 2925 2923 2921 2919 2918 2916 2915 2912 2909 2906 2904 2903 2901 2900 2898 2896 2894 2893 2892 2890 2888 2886 2884 2883 2881 2880 2879 2878 2877 2877 2876 2875 2874 2873 2873 2872 2871 2870 2869 2868 2867 2866 2865 2863 2861 2858 2856 2855 2853 2851
2966 2966 2965 2965 2964 2963 2962 2961 2960 2959 2958 2957 2956 2955 2954 2952 2951 2949 2948 2947 2945 2943 2941 2939 2937 2936 2935 2933 2932 2930 2928 2926 2924 2922 2920 2918 2916 2914 2912 2911 2909 2907 2905 2902 2899 2897 2895 2893 2891 2889 2887 2886 2884 2883 2881 2879 2878 2876 2874 2873 2872 2871 2870 2870 2869 2869 2868 2867 2867 2866 2866 2865 2864 2863 2862 2861 2860 2859 2858 2856 2854 2852 2850 2848 2846
2961 2961 2960 2959 2959 2958 2957 2956 2955 2954 2952 2951 2950 2949 2948 2946 2945 2943 2941 2940 2938 2937 2935 2933 2931 2929 2927 2926 2925 2923 2921 2920 2918 2916 2914 2912 2910 2908 2906 2904 2902 2900 2898 2896 2893 2890 2888 2885 2883 2880 2878 2877 2875 2873 2872 2870 2868 2867 2865 2864 2863 2863 2862 2862 2862 2861 2861 2861 2860 2860 2859 2859 2858 2857 2856 2855 2855 2854 2852 2850 2849 2847 2846 2844 2842
2957 2956 2955 2954 2953 2952 2951 2950 2949 2948 2947 2945 2944 2943 2941 2940 2938 2936 2935 2933 2932 2930 2928 2927 2925 2923 2921 2919 2918 2917 2915 2913 2912 2910 2908 2906 2904 2901 2899 2897 2895 2893 2891 2888 2885 2882 2879 2877 2874 2872 2869 2867 2865 2863 2862 2860 2859 2857 2856 2855 2855 2854 2854 2854 2854 2854 2853 2853 2853 2852 2852 2852 2851 2850 2850 2850 2849 2848 2847 2845 2844 2842 2842 2840 2838
2952 2951 2950 2949 2947 2946 2945 2944 2943 2942 2940 2939 2938 2936 2935 2933 2932 2930 2928 2927 2925 2924 2922 2920 2919 2917 2915 2913 2912 2910 2909 2907 2905 2903 2901 2899 2897 2895 2892 2890 2887 2885 2882 2879 2876 2873 2870 2868 2865 2862 2860 2858 2856 2854 2852 2850 2849 2848 2847 2846 2845 2845 2846 2847 2847 2846 2846 2846 2846 2846 2845 2845 2845 2844 2844 2844 2844 2842 2841 2841 2839 2837 2836 2836 2834
2947 2946 2944 2943 2942 2941 2939 2938 2937 2936 2934 2933 2932 2930 2929 2927 2926 2924 2922 2921 2919 2917 2916 2914 2913 2911 2909 2907 2905 2904 2903 2901 2899 2897 2895 2892 2890 2887 2885 2882 2879 2876 2873 2870 2867 2864 2861 2858 2855 2852 2850 2848 2846 2844 2842 2840 2839 2838 2837 2836 2836 2837 2838 2839 2840 2839 2839 2839 2839 2839 2839 2839 2838 2839 2839 2839 2838 2837 2836 2836 2835 2833 2832 2831 2830
2941 2940 2939 2938 2936 2935 2934 2933 2931 2930 2928 2927 2925 2924 2923 2921 2920 2918 2916 2915 2913 2912 2910 2909 2907 2905 2903 2901 2899 2898 2896 2894 2892 2890 2888 2886 2883 2880 2877 2874 2871 2868 2865 2861 2858 2854 2851 2848 2845 2842 2839 2837 2835 2833 2831 2829 2828 2828 2828 2828 2828 2829 2830 2831 2832 2832 2832 2833 2833 2833 2833 2833 2833 2833 2834 2833 2833 2832 2831 2831 2830 2829 2827 2826 2825
2935 2934 2933 2932 2931 2930 2929 2927 2926 2924 2923 2921 2919 2918 2916 2915 2913 2912 2911 2909 2908 2906 2904 2902 2901 2899 2897 2895 2893 2891 2889 2888 2885 2883 2881 2878 2875 2872 2869 2866 2862 2859 2856 2853 2849 2845 2842 2839 2835 2832 2829 2826 2824 2822 2820 2818 2817 2817 2818 2819 2820 2821 2822 2824 2825 2826 2826 2827 2827 2827 2828 2828 2828 2829 2829 2829 2828 2827 2827 2826 2825 2824 2823 2822 2821
2930 2929 2928 2927 2926 2924 2923 2921 2920 2918 2917 2915 2913 2912 2910 2909 2907 2906 2904 2903 2901 2900 2898 2896 2895 2893 2891 2889 2887 2885 2883 2880 2878 2875 2873 2870 2867 2863 2860 2857 2854 2851 2847 2844 2840 2837 2833 2830 2826 2822 2819 2816 2814 2811 2810 2808 2807 2808 2809 2810 2812 2813 2815 2817 2818 2819 2820 2820 2821 2822 2823 2823 2824 2824 2824 2824 2823 2823 2823 2822 2821 2820 2819 2818 2817
2925 2924 2923 2921 2920 2919 2917 2915 2914 2912 2911 2909 2908 2906 2904 2903 2901 2900 2898 2897 2895 2894 2892 2890 2888 2886 2885 2883 2881 2878 2876 2873 2871 2868 2865 2862 2859 2856 2852 2849 2846 2843 2840 2836 2832 2828 2824 2821 2817 2814 2810 2807 2805 2802 2801 2800 2799 2799 2801 2802 2804 2806 2809 2810 2812 2813 2814 2815 2816 2817 2818 2819 2819 2820 2820 2819 2819 2819 2818 2818 2817 2816 2815 2814 2813
2920 2919 2917 2916 2914 2912 2911 2909 2908 2906 2905 2903 2902 2900 2899 2897 2895 2894 2892 2891 2889 2888 2886 2884 2882 2880 2878 2876 2874 2872 2869 2867 2864 2861 2858 2855 2852 2849 2846 2843 2840 2836 2833 2829 2825 2821 2817 2814 2810 2807 2803 2800 2797 2795 2794 2793 2793 2793 2795 2796 2798 2801 2803 2804 2806 2807 2808 2810 2811 2813 2814 2814 2815 2815 2815 2815 2815 2815 2814 2814 2813 2812 2811 2810 2809
2914 2913 2911 2910 2908 2906 2905 2903 2902 2900 2899 2897 2896 2894 2893 2891 2889 2888 2886 2885 2883 2882 2880 2878 2876 2874 2872 2870 2868 2865 2863 2860 2857 2855 2852 2849 2846 2844 2840 2837 2834 2830 2827 2823 2819 2815 2812 2808 2805 2802 2798 2795 2793 2791 2789 2789 2789 2789 2791 2792 2794 2796 2798 2799 2801 2803 2804 2806 2807 2808 2809 2810 2811 2811 2811 2811 2811 2811 2810 2810 2809 2808 2807 2806 2805
2908 2907 2905 2904 2902 2900 2899 2897 2896 2894 2893 2891 2890 2888 2887 2885 2884 2882 2880 2879 2877 2875 2874 2872 2870 2868 2866 2864 2861 2859 2856 2854 2851 2849 2847 2844 2841 2838 2835 2832 2829 2825 2822 2818 2814 2811 2808 2805 2801 2798 2795 2793 2790 2789 2787 2787 2787 2787 2788 2790 2791 2793 2794 2796 2798 2799 2801 2802 2804 2805 2806 2806 2807 2807 2807 2807 2807 2807 2807 2806 2805 2804 2804 2803 2802
2902 2901 2899 2897 2896 2894 2893 2891 2890 2888 2887 2885 2884 2882 2881 2879 2878 2876 2874 2873 2871 2869 2868 2866 2864 2862 2860 2857 2855 2853 2851 2848 2846 2844 2842 2839 2837 2834 2831 2828 2825 2822 2818 2814 2811 2808 2805 2802 2799 2797 2794 2792 2790 2788 2787 2786 2786 2786 2787 2788 2789 2791 2792 2794 2795 2796 2798 2799 2800 2801 2802 2803 2803 2804 2804 2804 2803 2803 2803 2802 2801 2801 2800 2799 2798
2896 2895 2893 2892 2890 2889 2887 2885 2884 2882 2881 2880 2878 2877 2875 2874 2872 2870 2869 2867 2865 2863 2862 2860 2858 2856 2854 2852 2849 2848 2846 2844 2842 2840 2837 2835 2833 2830 2827 2824 2822 2819 2815 2812 2809 2806 2803 2801 2798 2796 2793 2791 2789 2788 2787 2786 2786 2786 2786 2787 2788 2789 2790 2792 2793 2794 2795 2796 2797 2798 2799 2799 2800 2800 2800 2800 2800 2799 2799 2798 2798 2797 2796 2796 2795
2891 2889 2888 2886 2885 2883 2881 2880 2878 2877 2876 2874 2873 2871 2870 2868 2866 2865 2863 2861 2859 2858 2856 2854 2852 2850 2848 2846 2844 2843 2841 2839 2837 2835 2833 2831 2829 2827 2824 2822 2819 2816 2813 2811 2808 2805 2802 2799 2797 2795 2793 2791 2789 2788 2787 2787 2786 2786 2786 2787 2787 2788 2789 2790 2791 2792 2793 2793 2794 2795 2796 2796 2797 2797 2797 2797 2796 2796 2796 2795 2794 2794 2793 2792 2791
2885 2884 2882 2881 2879 2878 2876 2875 2873 2872 2870 2869 2867 2866 2864 2862 2861 2859 2857 2855 2854 2852 2850 2848 2847 2845 2843 2841 2840 2838 2836 2835 2833 2831 2830 2828 2826 2824 2822 2819 2817 2814 2812 2809 2807 2804 2801 2799 2796 2794 2792 2791 2789 2788 2787 2787 2786 2786 2786 2786 2786 2787 2787 2788 2789 2790 2790 2791 2792 2792 2793 2793 2794 2794 2794 2793 2793 2792 2792 2792 2791 2790 2790 2789 2788